EW7146 Weather Reports


time (UTC)temp
F
wind
direction
speed
knots
gust
knots
rain 1hr
in
rain 24hr
in
rain mn
in
humidity
%
barometer
mb
20260831005758 70 290 3.5 9.6 0.00 0.00 0.00 43 1027.0
20260831005507 70 283 3.5 10.4 0.00 0.00 0.00 43 1027.0
20260831004749 70 313 3.5 12.2 0.00 0.00 0.00 43 1026.9
20260831004253 70 237 3.5 12.2 0.00 0.00 0.00 43 1026.8
20260831003751 71 244 3.5 8.7 0.00 0.00 0.00 43 1026.7
20260831003248 71 279 2.6 6.1 0.00 0.00 0.00 43 1026.9
20260831002749 71 305 2.6 8.7 0.00 0.00 0.00 43 1027.0
20260831002247 71 285 3.5 8.7 0.00 0.00 0.00 42 1027.0
20260831001747 71 330 3.5 13.9 0.00 0.00 0.00 42 1026.9
20260831001247 72 274 4.3 13.9 0.00 0.00 0.00 41 1026.7
20260831000747 72 300 2.6 8.7 0.00 0.00 0.00 41 1026.8
20260831000248 73 272 2.6 5.2 0.00 0.00 0.00 40 1026.8
20260830235746 73 302 1.7 6.1 0.00 0.00 0.00 41 1026.8
20260830235247 73 331 3.5 6.1 0.00 0.00 0.00 41 1026.7
20260830234746 72 295 1.7 5.2 0.00 0.00 0.00 41 1026.9
20260830234247 72 86 2.6 13.0 0.00 0.00 0.00 41 1026.9
20260830233746 73 298 2.6 13.0 0.00 0.00 0.00 40 1026.9
20260830233507 74 334 1.7 6.1 0.00 0.00 0.00 40 1026.9
20260830232747 74 255 3.5 8.7 0.00 0.00 0.00 37 1026.8
20260830232246 75 327 2.6 10.4 0.00 0.00 0.00 38 1026.8
20260830231746 75 248 1.7 10.4 0.00 0.00 0.00 37 1026.9
20260830231246 75 238 2.6 8.7 0.00 0.00 0.00 38 1026.8
20260830230747 74 298 0.9 9.6 0.00 0.00 0.00 38 1026.9
20260830230251 73 258 1.7 9.6 0.00 0.00 0.00 39 1027.1
20260830230010 73 233 3.5 9.6 0.00 0.00 0.00 38 1027.0
20260830225245 74 344 2.6 5.2 0.00 0.00 0.00 38 1027.0
20260830224745 74 290 1.7 9.6 0.00 0.00 0.00 39 1027.0
20260830224245 74 289 2.6 9.6 0.00 0.00 0.00 37 1027.1
20260830223744 75 329 1.7 6.1 0.00 0.00 0.00 37 1027.0
20260830223246 74 278 2.6 7.8 0.00 0.00 0.00 39 1027.0
20260830222745 74 265 2.6 7.8 0.00 0.00 0.00 39 1026.9
20260830222246 74 305 0.9 3.5 0.00 0.00 0.00 38 1027.0
20260830222001 74 248 0.9 3.5 0.00 0.00 0.00 39 1027.0
20260830221513 74 221 0.9 5.2 0.00 0.00 0.00 39 1027.0
20260830220745 74 266 0.9 6.1 0.00 0.00 0.00 39 1027.1
20260830220244 74 300 1.7 8.7 0.00 0.00 0.00 39 1027.3
20260830215744 74 298 0.9 8.7 0.00 0.00 0.00 38 1027.2
20260830215249 74 343 1.7 5.2 0.00 0.00 0.00 37 1027.3
20260830214745 74 309 1.7 8.7 0.00 0.00 0.00 39 1027.5
20260830214504 74 237 1.7 8.7 0.00 0.00 0.00 38 1027.5
20260830213750 74 293 1.7 6.1 0.00 0.00 0.00 38 1027.3
20260830213724 74 298 0.9 4.3 0.00 0.00 0.00 39 1027.5
20260830212743 73 303 0.9 8.7 0.00 0.00 0.00 39 1027.5
20260830212244 73 296 0.9 12.2 0.00 0.00 0.00 40 1027.6
20260830211743 73 247 5.2 12.2 0.00 0.00 0.00 37 1027.6
20260830211243 72 245 0.0 9.6 0.00 0.00 0.00 39 1027.7
20260830210742 72 228 4.3 9.6 0.00 0.00 0.00 37 1027.7
20260830210506 72 282 1.7 7.8 0.00 0.00 0.00 39 1027.8
20260830205742 72 262 2.6 7.8 0.00 0.00 0.00 38 1027.7
20260830205508 71 299 1.7 7.8 0.00 0.00 0.00 39 1027.7
20260830204742 71 271 2.6 7.8 0.00 0.00 0.00 38 1027.7
20260830204244 71 336 3.5 7.8 0.00 0.00 0.00 39 1027.8
20260830203742 71 223 0.9 5.2 0.00 0.00 0.00 38 1027.8
20260830203242 71 307 0.9 5.2 0.00 0.00 0.00 40 1027.9
20260830202743 72 251 1.7 9.6 0.00 0.00 0.00 38 1027.8
20260830202242 73 306 0.9 9.6 0.00 0.00 0.00 37 1027.8
20260830201743 74 18 1.7 5.2 0.00 0.00 0.00 38 1027.9
20260830201242 73 298 0.0 8.7 0.00 0.00 0.00 37 1027.9
20260830200743 72 276 1.7 8.7 0.00 0.00 0.00 36 1028.0
20260830200241 73 292 1.7 5.2 0.00 0.00 0.00 38 1028.0
20260830195741 72 38 1.7 10.4 0.00 0.00 0.00 38 1028.0
20260830195241 72 292 2.6 10.4 0.00 0.00 0.00 38 1028.0
20260830194741 72 295 1.7 9.6 0.00 0.00 0.00 39 1028.0
20260830194242 72 306 2.6 6.1 0.00 0.00 0.00 38 1028.1
20260830193741 72 327 2.6 6.1 0.00 0.00 0.00 39 1028.1
20260830193243 72 290 1.7 6.1 0.00 0.00 0.00 38 1028.2
20260830192741 72 324 1.7 6.1 0.00 0.00 0.00 37 1028.2
20260830192243 71 226 1.7 5.2 0.00 0.00 0.00 38 1028.3
20260830191740 71 305 0.9 9.6 0.00 0.00 0.00 38 1028.3
20260830191240 71 299 3.5 9.6 0.00 0.00 0.00 37 1028.4
20260830190745 71 16 0.0 6.1 0.00 0.00 0.00 40 1028.4
20260830190239 70 283 1.7 8.7 0.00 0.00 0.00 39 1028.4
20260830185741 70 306 1.7 8.7 0.00 0.00 0.00 40 1028.4
20260830185241 70 254 0.9 9.6 0.00 0.00 0.00 40 1028.5
20260830184741 70 302 3.5 9.6 0.00 0.00 0.00 39 1028.5
20260830184239 69 272 0.9 6.1 0.00 0.00 0.00 40 1028.6
20260830184004 69 299 0.9 5.2 0.00 0.00 0.00 41 1028.7
20260830183240 69 306 1.7 9.6 0.00 0.00 0.00 43 1028.7
20260830182739 69 302 0.0 9.6 0.00 0.00 0.00 42 1028.7
20260830182502 69 279 1.7 5.2 0.00 0.00 0.00 41 1028.9
20260830181745 68 302 1.7 5.2 0.00 0.00 0.00 43 1028.7
20260830181739 69 300 1.7 5.2 0.00 0.00 0.00 43 1028.8
20260830180739 68 23 1.7 4.3 0.00 0.00 0.00 42 1028.7
20260830180240 68 320 2.6 4.3 0.00 0.00 0.00 43 1028.9
20260830175741 67 286 0.9 4.3 0.00 0.00 0.00 45 1028.8
20260830175238 67 302 2.6 7.8 0.00 0.00 0.00 44 1028.9
20260830174739 66 309 1.7 7.8 0.00 0.00 0.00 46 1028.8
20260830174505 66 310 1.7 4.3 0.00 0.00 0.00 46 1028.8
20260830173739 65 309 0.9 8.7 0.00 0.00 0.00 49 1028.8
20260830173238 64 305 1.7 8.7 0.00 0.00 0.00 48 1028.9
20260830172744 64 248 1.7 4.3 0.00 0.00 0.00 48 1028.8
20260830172238 64 13 1.7 5.2 0.00 0.00 0.00 50 1028.8
20260830171739 64 310 1.7 5.2 0.00 0.00 0.00 50 1028.8
20260830171237 63 306 2.6 4.3 0.00 0.00 0.00 51 1028.8
20260830170957 62 336 1.7 4.3 0.00 0.00 0.00 54 1028.7
20260830170245 61 341 0.0 2.6 0.00 0.00 0.00 59 1028.9
20260830165737 60 92 0.0 2.6 0.00 0.00 0.00 60 1028.9
20260830165237 59 59 0.0 2.6 0.00 0.01 0.00 60 1028.9
20260830164736 59 65 0.0 2.6 0.00 0.01 0.00 64 1028.9
20260830164238 58 107 0.0 3.5 0.00 0.01 0.00 66 1028.9
20260830163944 57 111 0.0 2.6 0.00 0.03 0.00 69 1028.9
20260830163832 57 59 0.0 3.5 0.00 0.02 0.00 67 1028.9
20260830162738 56 127 0.9 3.5 0.00 0.04 0.00 69 1029.1
20260830162236 56 73 1.7 3.5 0.00 0.05 0.00 70 1029.1
20260830161744 56 103 0.9 3.5 0.00 0.07 0.00 70 1028.9
20260830161235 55 131 0.0 3.5 0.00 0.07 0.00 70 1029.1
20260830160738 55 68 0.9 3.5 0.00 0.08 0.00 70 1028.9
20260830160459 55 86 0.9 3.5 0.00 0.08 0.00 72 1028.9
20260830155959 55 65 1.7 3.5 0.00 0.08 0.00 72 1029.1
20260830155236 54 85 0.0 2.6 0.00 0.09 0.00 74 1028.9
20260830154740 53 39 0.9 2.6 0.00 0.09 0.00 73 1029.1
20260830154235 52 86 0.0 2.6 0.00 0.09 0.00 76 1029.1
20260830153736 52 83 0.0 2.6 0.00 0.09 0.00 76 1029.2
20260830153236 51 72 0.9 2.6 0.00 0.09 0.00 75 1029.2
20260830152736 51 73 0.0 1.7 0.00 0.09 0.00 78 1029.2
20260830152238 50 118 0.0 0.9 0.00 0.09 0.00 79 1029.3
20260830152005 49 68 0.0 0.9 0.00 0.09 0.00 80 1029.3
20260830151236 49 61 0.0 0.0 0.00 0.09 0.00 81 1029.3
20260830150735 48 90 0.0 0.0 0.00 0.09 0.00 82 1029.3
20260830150236 48 111 0.0 0.0 0.00 0.09 0.00 84 1029.3
20260830145734 47 111 0.0 0.0 0.00 0.09 0.00 84 1029.4
20260830145234 47 120 0.0 0.0 0.00 0.09 0.00 84 1029.4
20260830144734 47 87 0.0 0.0 0.00 0.09 0.00 85 1029.3
20260830144235 47 87 0.0 0.0 0.00 0.09 0.00 85 1029.4
20260830143736 46 87 0.0 0.0 0.00 0.09 0.00 85 1029.4
20260830143504 46 87 0.0 0.0 0.00 0.09 0.00 86 1029.5
20260830142738 46 87 0.0 0.0 0.00 0.09 0.00 86 1029.4
20260830142233 45 87 0.0 0.0 0.00 0.10 0.00 87 1029.4
20260830141733 45 87 0.0 0.0 0.00 0.10 0.00 87 1029.3
20260830141233 45 87 0.0 0.0 0.00 0.13 0.00 86 1029.2
20260830140733 45 87 0.0 0.0 0.00 0.17 0.00 85 1029.1
20260830140234 45 87 0.0 0.0 0.00 0.17 0.00 86 1029.2
20260830135732 44 87 0.0 0.0 0.00 0.17 0.00 86 1029.2
20260830135457 44 79 0.0 0.0 0.00 0.17 0.00 86 1029.1
20260830134733 44 79 0.0 0.0 0.00 0.17 0.00 86 1029.1
20260830134234 44 78 0.0 0.0 0.00 0.17 0.00 85 1029.2
20260830133737 44 78 0.0 0.0 0.00 0.17 0.00 83 1029.2
20260830133455 45 79 0.0 0.0 0.00 0.17 0.00 84 1029.1
20260830132733 45 75 0.0 0.0 0.00 0.17 0.00 84 1029.1
20260830132231 44 117 0.0 0.0 0.00 0.17 0.00 86 1029.1
20260830131733 44 116 0.0 0.0 0.00 0.17 0.00 87 1028.9
20260830131234 43 175 0.0 0.0 0.00 0.17 0.00 87 1029.1
20260830130734 43 141 0.0 0.0 0.00 0.17 0.00 87 1029.1
20260830130454 42 231 0.0 0.0 0.00 0.17 0.00 87 1029.2
20260830125733 42 231 0.0 0.0 0.00 0.17 0.00 87 1029.1
20260830125231 42 231 0.0 0.0 0.00 0.17 0.00 87 1029.1
20260830124731 42 247 0.0 0.0 0.00 0.17 0.00 86 1029.1
20260830124232 42 247 0.0 0.0 0.00 0.17 0.00 86 1029.1
20260830123732 42 247 0.0 0.0 0.00 0.17 0.00 86 1029.1
20260830123232 42 166 0.0 0.0 0.00 0.17 0.00 85 1029.1
20260830122730 42 166 0.0 0.0 0.00 0.17 0.00 85 1029.1
20260830122232 42 157 0.0 0.0 0.00 0.17 0.00 85 1028.9
20260830121733 43 157 0.0 0.0 0.00 0.17 0.00 83 1028.9
20260830121452 44 155 0.0 0.0 0.00 0.17 0.00 82 1028.9
20260830120731 44 157 0.0 0.0 0.00 0.17 0.00 82 1029.1
20260830120230 44 157 0.0 0.0 0.00 0.17 0.00 83 1029.1
20260830115731 44 173 0.0 0.0 0.00 0.17 0.00 83 1028.9
20260830115230 44 159 0.0 0.0 0.00 0.17 0.00 83 1028.9
20260830114731 44 154 0.0 0.0 0.00 0.17 0.00 83 1028.9
20260830114231 44 154 0.0 0.0 0.00 0.17 0.00 83 1028.9
20260830113732 44 154 0.0 0.0 0.00 0.17 0.00 83 1028.9
20260830113230 44 154 0.0 0.0 0.00 0.17 0.00 83 1029.1
20260830112731 44 154 0.0 0.0 0.00 0.17 0.00 83 1028.8
20260830112230 44 154 0.0 0.0 0.00 0.17 0.00 81 1028.9
20260830111734 45 154 0.0 0.0 0.00 0.17 0.00 81 1028.8
20260830111231 45 151 0.0 0.0 0.00 0.17 0.00 81 1028.8
20260830110729 45 151 0.0 0.0 0.00 0.17 0.00 83 1028.8
20260830110230 44 152 0.0 0.0 0.00 0.17 0.00 83 1028.9
20260830105728 44 102 0.0 0.0 0.00 0.17 0.00 83 1028.9
20260830105230 45 102 0.0 0.0 0.00 0.17 0.00 82 1028.9
20260830104728 45 102 0.0 0.0 0.00 0.17 0.00 81 1028.8
20260830104234 45 102 0.0 0.0 0.00 0.17 0.00 80 1028.8
20260830103729 45 102 0.0 0.0 0.00 0.17 0.00 81 1028.9
20260830103228 45 102 0.0 0.0 0.00 0.17 0.00 79 1028.8
20260830102957 45 102 0.0 0.0 0.00 0.17 0.00 80 1028.8
20260830102716 46 102 0.0 0.0 0.00 0.17 0.00 79 1028.8
20260830101952 46 102 0.0 0.0 0.00 0.17 0.00 78 1028.8
20260830101228 47 102 0.0 0.0 0.00 0.17 0.00 77 1028.9
20260830100729 47 102 0.0 0.0 0.00 0.17 0.00 77 1028.8
20260830100227 47 102 0.0 0.0 0.00 0.17 0.00 76 1028.7
20260830095727 47 127 0.0 0.0 0.00 0.17 0.00 75 1028.6
20260830095451 47 165 0.0 0.0 0.00 0.17 0.00 75 1028.6
20260830094724 47 173 0.0 0.0 0.00 0.17 0.00 75 1028.6
20260830094228 47 173 0.0 0.0 0.00 0.17 0.00 75 1028.6
20260830093727 47 159 0.0 0.0 0.00 0.17 0.00 74 1028.5
20260830093230 47 226 0.0 0.0 0.00 0.17 0.00 75 1028.5
20260830092727 48 329 0.0 0.9 0.00 0.17 0.00 74 1028.5
20260830092229 48 128 0.0 0.9 0.00 0.17 0.00 74 1028.6
20260830091727 48 97 0.0 0.0 0.00 0.17 0.00 71 1028.7
20260830091227 48 116 0.0 0.0 0.00 0.17 0.00 73 1028.6
20260830090727 48 56 0.0 0.0 0.00 0.17 0.00 73 1028.6
20260830090227 49 52 0.0 0.0 0.00 0.17 0.00 70 1028.6
20260830085727 50 102 0.0 0.0 0.00 0.17 0.00 67 1028.5
20260830085230 51 123 0.0 0.0 0.00 0.17 0.00 67 1028.5
20260830084946 52 109 0.0 0.9 0.00 0.17 0.00 66 1028.5
20260830084443 53 38 0.0 6.1 0.00 0.17 0.00 63 1028.6
20260830083727 54 258 0.0 6.1 0.00 0.17 0.00 63 1028.5
20260830083226 53 264 0.0 6.1 0.00 0.17 0.00 62 1028.5
20260830082725 53 250 0.9 3.5 0.00 0.17 0.00 62 1028.5
20260830082447 53 248 0.9 2.6 0.00 0.17 0.00 62 1028.5
20260830081721 53 250 0.0 1.7 0.00 0.17 0.00 63 1028.6
20260830081444 53 250 0.9 2.6 0.00 0.17 0.00 60 1028.5
20260830080946 54 292 0.0 2.6 0.00 0.17 0.00 59 1028.4
20260830080443 54 250 0.0 0.9 0.00 0.17 0.00 58 1028.4
20260830075725 55 237 0.0 5.2 0.00 0.17 0.00 59 1028.4
20260830075444 56 237 0.0 5.2 0.00 0.17 0.00 55 1028.4
20260830074727 56 259 0.0 3.5 0.00 0.17 0.00 55 1028.4
20260830074225 56 252 0.0 4.3 0.00 0.17 0.00 55 1028.3
20260830073722 56 252 1.7 5.2 0.00 0.17 0.00 54 1028.4
20260830073223 56 281 0.0 6.1 0.00 0.17 0.00 55 1028.5
20260830072725 56 276 0.9 6.1 0.00 0.17 0.00 55 1028.4
20260830072224 55 247 2.6 5.2 0.00 0.17 0.00 56 1028.4
20260830071726 55 233 0.0 3.5 0.00 0.17 0.00 56 1028.5
20260830071225 56 251 0.0 3.5 0.00 0.17 0.00 55 1028.4
20260830070724 56 295 0.0 3.5 0.00 0.17 0.00 54 1028.4
20260830070224 57 290 0.9 7.8 0.00 0.17 0.00 53 1028.3
20260830065721 57 228 2.6 7.8 0.00 0.17 0.17 53 1028.4
20260830065222 57 265 2.6 4.3 0.00 0.17 0.17 54 1028.4
20260830064723 56 247 1.7 4.3 0.00 0.17 0.17 54 1028.3
20260830064235 56 245 0.9 5.2 0.00 0.17 0.17 54 1028.4
20260830063950 57 252 0.0 5.2 0.00 0.17 0.17 54 1028.4
20260830063224 56 282 2.6 5.2 0.00 0.17 0.17 54 1028.4
20260830062728 56 258 0.0 4.3 0.00 0.17 0.17 54 1028.4
20260830062443 56 247 1.7 4.3 0.00 0.17 0.17 54 1028.3
20260830061940 56 292 1.7 5.2 0.00 0.17 0.17 54 1028.3
20260830061444 56 278 0.9 5.2 0.00 0.17 0.17 54 1028.3
20260830060723 57 244 0.0 4.3 0.00 0.17 0.17 53 1028.3
20260830060223 57 272 2.6 5.2 0.00 0.17 0.17 53 1028.4
20260830055722 57 248 2.6 5.2 0.00 0.17 0.17 53 1028.3
20260830055222 57 235 0.9 5.2 0.00 0.17 0.17 54 1028.3
20260830054724 57 255 0.0 4.3 0.00 0.17 0.17 54 1028.4
20260830054222 57 271 0.0 5.2 0.00 0.17 0.17 54 1028.4
20260830053722 57 281 1.7 5.2 0.00 0.17 0.17 53 1028.6
20260830053222 57 265 0.9 5.2 0.00 0.17 0.17 54 1028.6
20260830052722 57 298 1.7 4.3 0.00 0.17 0.17 54 1028.6
20260830052219 57 274 0.9 4.3 0.00 0.17 0.17 54 1028.5
20260830051721 57 282 0.9 4.3 0.00 0.17 0.17 55 1028.6
20260830051223 57 241 0.9 3.5 0.00 0.17 0.17 54 1028.6
20260830050722 58 269 0.0 7.8 0.00 0.17 0.17 53 1028.6
20260830050222 58 258 3.5 7.8 0.00 0.17 0.17 52 1028.7
20260830050200 58 238 1.7 7.8 0.00 0.17 0.17 53 1028.6
20260830045704 57 219 2.6 6.1 0.00 0.17 0.17 53 1028.6
20260830044718 58 307 1.7 9.6 0.00 0.17 0.17 54 1028.7
20260830044216 57 240 2.6 9.6 0.00 0.17 0.17 54 1028.7
20260830043718 57 245 0.9 8.7 0.00 0.17 0.17 54 1028.6
20260830043221 57 314 0.9 8.7 0.00 0.17 0.17 54 1028.5
20260830042441 57 298 1.7 4.3 0.00 0.17 0.17 55 1028.4
20260830041721 58 240 0.9 4.3 0.00 0.17 0.17 54 1028.3
20260830041220 58 250 1.7 3.5 0.00 0.17 0.17 54 1028.2
20260830040720 58 276 1.7 3.5 0.00 0.17 0.17 54 1028.2
20260830040421 58 305 2.6 8.7 0.00 0.17 0.17 55 1028.2
20260830040313 58 17 0.9 8.7 0.00 0.17 0.17 54 1028.3
20260830035218 58 288 0.9 5.2 0.00 0.17 0.17 55 1028.4
20260830034719 58 235 0.9 5.2 0.00 0.17 0.17 55 1028.4
20260830034227 58 251 0.9 3.5 0.00 0.17 0.17 55 1028.4
20260830033719 58 268 1.7 4.3 0.00 0.17 0.17 54 1028.3
20260830033219 58 289 0.9 4.3 0.00 0.17 0.17 55 1028.2
20260830032719 58 326 1.7 4.3 0.00 0.17 0.17 54 1028.0
20260830032219 58 298 0.9 4.3 0.00 0.17 0.17 54 1028.1
20260830031715 58 261 1.7 4.3 0.00 0.17 0.17 54 1027.9
20260830031215 59 299 1.7 6.1 0.00 0.17 0.17 54 1028.0
20260830030716 59 300 1.7 6.1 0.00 0.17 0.17 53 1027.8
20260830030219 59 243 1.7 3.5 0.00 0.17 0.17 54 1027.9
20260830025719 59 354 1.7 3.5 0.00 0.17 0.17 53 1027.8
20260830025218 59 235 1.7 5.2 0.00 0.17 0.17 52 1027.8
20260830024719 60 258 1.7 6.1 0.00 0.17 0.17 52 1027.8
20260830024712 60 264 2.6 9.6 0.00 0.17 0.17 51 1027.7
20260830023718 60 319 4.3 9.6 0.00 0.17 0.17 51 1027.7
20260830023219 60 290 1.7 5.2 0.00 0.17 0.17 52 1027.8
20260830022718 60 285 0.9 5.2 0.00 0.17 0.17 53 1027.7
20260830022216 60 219 1.7 3.5 0.00 0.17 0.17 53 1027.6
20260830021218 61 262 1.7 4.3 0.00 0.17 0.17 53 1027.6
20260830020938 61 293 0.9 3.5 0.00 0.17 0.17 53 1027.5
20260830020217 61 293 1.7 4.3 0.00 0.17 0.17 52 1027.3
20260830015717 61 310 0.9 4.3 0.00 0.17 0.17 52 1027.3
20260830015217 61 306 0.9 2.6 0.00 0.17 0.17 53 1027.2
20260830014715 62 298 0.9 3.5 0.00 0.17 0.17 52 1027.1
20260830014436 62 303 1.7 4.3 0.00 0.17 0.17 52 1027.1
20260830013714 62 344 1.7 7.8 0.00 0.17 0.17 52 1027.0
20260830013216 62 319 1.7 7.8 0.00 0.17 0.17 51 1027.0
20260830012717 62 314 0.9 7.8 0.00 0.17 0.17 52 1027.0
20260830012221 62 3 0.9 7.8 0.00 0.17 0.17 51 1026.9
20260830011716 62 243 2.6 7.8 0.00 0.17 0.17 51 1026.9
20260830011221 62 17 1.7 6.1 0.00 0.17 0.17 52 1026.8
20260830010716 62 300 1.7 6.1 0.00 0.17 0.17 52 1026.7
20260830010443 61 247 1.7 4.3 0.00 0.17 0.17 53 1026.7